sat.trackr.live / text

‹ back to catalog

ONEWEB-0134

NORAD 47280 · 2020-100Y

PAYLOAD ACTIVE UNKNOWN

§ Identity

Operator
Country
UK
Launch date
2020-12-18
Launch site
VOSTO
Launch vehicle
Mass (kg)
RCS (m²)

Purposes: comms

External: N2YO · Heavens-Above · Gunter

§ Orbital elements

Epoch: 2026-09-19T10:20:27.972384Z

Period
109.72 min
Inclination
87.8988°
Eccentricity
0.0001724
Mean motion
13.12441443 rev/d
Perigee alt
1,212.4 km
Apogee alt
1,215.0 km
Semi-major
7,591.9 km
B*
2.9428e-4
RAAN
331.9425°
Arg perigee
93.5572°
Mean anomaly
266.5754°
Rev number
27,707

§ Raw data

ONEWEB-01341 47280U 20100Y   26262.43087931  .00000119  00000+0  29428-3 0  99952 47280  87.8988 331.9425 0001724  93.5572 266.5754 13.12441443277078

JSON: /api/v1/satellites/47280 · /tle

For live sub-satellite position, see the globe view (requires WebGL).

§ Visibility from observer

Set your observer location to see the next 7 days of passes ≥ 10°. The values pass through the URL so the page stays shareable.

No JS? Fill the form by hand. The geolocation button needs JavaScript.